QPF
0.00 0.00 0.00 0.00 0.00 0.00 0.00 0.00 0.00 0.01 0.01 0.00 0.00 0.00 0.00 0.00 0.00 0.00 0.00 0.00 0.00 0.00 0.00 0.00 0.01 0.01 0.01 0.01 0.01 0.03 0.05 0.05 0.06 0.09 0.10 0.11 0.13 0.15 0.14 0.10 0.04 0.02 0.03
0.00 0.00 0.00 0.00 0.00 0.00 0.00 0.00 0.00 0.00 0.00 0.00 0.00 0.00 0.00 0.00 0.00 0.00 0.00 0.00 0.00 0.00 0.00 0.00 0.01 0.01 0.01 0.02 0.02 0.03 0.04 0.04 0.06 0.08 0.12 0.14 0.12 0.11 0.11 0.06 0.03 0.01 0.02
0.00 0.00 0.00 0.00 0.00 0.00 0.00 0.00 0.00 0.00 0.00 0.01 0.02 0.02 0.01 0.00 0.00 0.00 0.00 0.00 0.00 0.00 0.00 0.00 0.01 0.01 0.02 0.03 0.02 0.01 0.01 0.01 0.02 0.03 0.07 0.07 0.05 0.06 0.06 0.04 0.03 0.01 0.02
0.00 0.00 0.00 0.00 0.00 0.00 0.00 0.00 0.00 0.00 0.01 0.01 0.03 0.03 0.01 0.00 0.00 0.00 0.00 0.00 0.00 0.00 0.00 0.00 0.00 0.01 0.01 0.01 0.01 0.01 0.00 0.00 0.00 0.01 0.01 0.02 0.02 0.03 0.03 0.05 0.04 0.02 0.02
0.00 0.00 0.00 0.00 0.00 0.00 0.00 0.00 0.01 0.00 0.01 0.01 0.01 0.01 0.00 0.00 0.00 0.00 0.00 0.00 0.00 0.00 0.00 0.00 0.00 0.01 0.01 0.01 0.00 0.00 0.00 0.00 0.01 0.01 0.01 0.01 0.01 0.04 0.04 0.03 0.03 0.02 0.02
0.00 0.00 0.00 0.00 0.00 0.00 0.00 0.00 0.01 0.01 0.00 0.00 0.00 0.00 0.00 0.01 0.00 0.00 0.00 0.00 0.00 0.00 0.00 0.00 0.00 0.00 0.00 0.00 0.00 0.00 0.01 0.01 0.01 0.00 0.01 0.01 0.01 0.04 0.04 0.03 0.01 0.02 0.03
0.00 0.00 0.00 0.00 0.00 0.00 0.00 0.00 0.00 0.01 0.00 0.00 0.00 0.00 0.00 0.00 0.00 0.00 0.01 0.00 0.00 0.00 0.00 0.00 0.00 0.00 0.00 0.00 0.00 0.00 0.00 0.00 0.00 0.00 0.00 0.01 0.01 0.04 0.03 0.02 0.01 0.01 0.02
0.00 0.00 0.00 0.00 0.00 0.00 0.00 0.00 0.00 0.00 0.00 0.00 0.00 0.00 0.00 0.00 0.00 0.00 0.01 0.00 0.00 0.00 0.00 0.00 0.00 0.00 0.00 0.00 0.00 0.00 0.00 0.00 0.00 0.00 0.00 0.01 0.04 0.04 0.02 0.01 0.01 0.01 0.02
0.00 0.00 0.00 0.00 0.00 0.00 0.00 0.00 0.00 0.00 0.00 0.00 0.00 0.00 0.00 0.00 0.00 0.00 0.00 0.00 0.00 0.00 0.00 0.00 0.00 0.00 0.00 0.00 0.00 0.00 0.00 0.00 0.00 0.00 0.00 0.02 0.03 0.03 0.01 0.01 0.01 0.02 0.02
0.01 0.00 0.00 0.00 0.00 0.00 0.00 0.00 0.00 0.00 0.00 0.00 0.00 0.00 0.00 0.00 0.00 0.00 0.00 0.00 0.00 0.00 0.00 0.00 0.00 0.00 0.00 0.00 0.00 0.00 0.00 0.00 0.00 0.00 0.00 0.01 0.01 0.01 0.00 0.01 0.01 0.01 0.01
0.01 0.00 0.00 0.00 0.00 0.00 0.00 0.00 0.00 0.00 0.00 0.00 0.00 0.00 0.00 0.00 0.00 0.00 0.00 0.00 0.00 0.00 0.00 0.00 0.00 0.00 0.00 0.00 0.00 0.00 0.00 0.00 0.00 0.00 0.00 0.01 0.00 0.00 0.00 0.00 0.00 0.00 0.00
0.01 0.01 0.01 0.01 0.00 0.00 0.00 0.00 0.00 0.00 0.00 0.00 0.00 0.00 0.01 0.00 0.00 0.00 0.00 0.00 0.00 0.00 0.00 0.00 0.00 0.00 0.00 0.00 0.00 0.00 0.00 0.01 0.01 0.00 0.00 0.00 0.00 0.00 0.00 0.00 0.00 0.00 0.00
0.01 0.01 0.01 0.01 0.01 0.00 0.00 0.00 0.00 0.00 0.00 0.00 0.00 0.00 0.01 0.01 0.00 0.00 0.00 0.00 0.00 0.00 0.00 0.00 0.00 0.00 0.00 0.00 0.00 0.01 0.01 0.00 0.00 0.00 0.00 0.00 0.01 0.01 0.01 0.00 0.00 0.00 0.00
0.00 0.01 0.01 0.01 0.02 0.01 0.00 0.00 0.00 0.00 0.00 0.00 0.00 0.00 0.01 0.01 0.00 0.00 0.00 0.00 0.00 0.00 0.00 0.00 0.00 0.00 0.00 0.00 0.01 0.02 0.01 0.00 0.00 0.00 0.00 0.01 0.02 0.02 0.02 0.01 0.00 0.00 0.01
0.00 0.00 0.00 0.01 0.01 0.01 0.00 0.00 0.00 0.00 0.00 0.00 0.00 0.01 0.01 0.00 0.00 0.00 0.00 0.00 0.00 0.00 0.00 0.00 0.00 0.00 0.00 0.00 0.02 0.03 0.02 0.01 0.00 0.00 0.01 0.03 0.05 0.06 0.04 0.02 0.01 0.01 0.01
0.00 0.00 0.00 0.01 0.01 0.00 0.00 0.00 0.00 0.00 0.00 0.00 0.00 0.00 0.00 0.00 0.00 0.00 0.01 0.00 0.01 0.01 0.00 0.00 0.00 0.00 0.00 0.00 0.01 0.01 0.01 0.01 0.00 0.01 0.01 0.03 0.07 0.11 0.10 0.06 0.03 0.02 0.01
0.00 0.00 0.00 0.01 0.01 0.01 0.01 0.01 0.01 0.01 0.00 0.00 0.01 0.00 0.00 0.01 0.00 0.00 0.01 0.00 0.01 0.01 0.00 0.00 0.00 0.00 0.00 0.00 0.00 0.00 0.00 0.01 0.00 0.00 0.00 0.01 0.03 0.09 0.14 0.09 0.06 0.04 0.01
0.00 0.00 0.00 0.01 0.01 0.01 0.02 0.02 0.02 0.03 0.02 0.01 0.02 0.01 0.01 0.01 0.00 0.00 0.00 0.00 0.00 0.00 0.00 0.00 0.01 0.00 0.00 0.00 0.00 0.00 0.00 0.00 0.00 0.00 0.00 0.00 0.01 0.03 0.07 0.07 0.06 0.04 0.02
0.00 0.00 0.00 0.00 0.01 0.01 0.02 0.03 0.04 0.05 0.06 0.05 0.05 0.04 0.04 0.04 0.03 0.01 0.00 0.00 0.00 0.00 0.00 0.00 0.01 0.01 0.00 0.00 0.00 0.00 0.00 0.00 0.00 0.00 0.00 0.00 0.00 0.00 0.01 0.01 0.02 0.01 0.02
0.00 0.00 0.00 0.00 0.02 0.03 0.04 0.05 0.07 0.09 0.12 0.14 0.17 0.11 0.09 0.12 0.10 0.06 0.02 0.02 0.02 0.01 0.00 0.01 0.01 0.02 0.01 0.00 0.00 0.00 0.00 0.00 0.00 0.00 0.00 0.00 0.00 0.00 0.00 0.00 0.00 0.00 0.00
0.00 0.00 0.00 0.01 0.02 0.03 0.06 0.08 0.11 0.12 0.14 0.18 0.25 0.21 0.15 0.15 0.15 0.14 0.09 0.07 0.05 0.02 0.01 0.01 0.03 0.05 0.04 0.02 0.01 0.01 0.00 0.00 0.00 0.00 0.00 0.00 0.00 0.00 0.00 0.00 0.00 0.00 0.00
0.00 0.00 0.00 0.01 0.03 0.05 0.07 0.08 0.08 0.09 0.10 0.13 0.17 0.18 0.12 0.13 0.20 0.23 0.20 0.17 0.12 0.07 0.03 0.03 0.05 0.09 0.11 0.07 0.05 0.04 0.02 0.01 0.00 0.00 0.00 0.00 0.00 0.00 0.00 0.00 0.00 0.00 0.00
0.01 0.00 0.00 0.01 0.03 0.05 0.05 0.04 0.03 0.03 0.04 0.05 0.07 0.09 0.09 0.12 0.18 0.26 0.31 0.27 0.20 0.13 0.09 0.07 0.09 0.14 0.16 0.14 0.13 0.10 0.03 0.01 0.00 0.00 0.00 0.00 0.00 0.00 0.00 0.00 0.00 0.00 0.00
0.02 0.02 0.01 0.02 0.03 0.03 0.02 0.01 0.00 0.01 0.02 0.04 0.06 0.06 0.05 0.06 0.08 0.15 0.24 0.28 0.27 0.21 0.19 0.16 0.15 0.16 0.17 0.13 0.14 0.13 0.07 0.04 0.02 0.00 0.00 0.00 0.00 0.00 0.00 0.00 0.00 0.00 0.00
0.05 0.05 0.03 0.04 0.03 0.02 0.01 0.00 0.00 0.00 0.01 0.03 0.04 0.03 0.02 0.02 0.02 0.05 0.13 0.24 0.30 0.31 0.32 0.31 0.24 0.20 0.17 0.12 0.09 0.13 0.15 0.14 0.10 0.04 0.00 0.00 0.00 0.00 0.00 0.00 0.00 0.00 0.00
0.06 0.06 0.04 0.02 0.01 0.01 0.00 0.00 0.00 0.00 0.01 0.01 0.02 0.03 0.02 0.01 0.01 0.02 0.06 0.13 0.23 0.35 0.39 0.37 0.32 0.28 0.24 0.17 0.10 0.10 0.14 0.18 0.20 0.14 0.05 0.01 0.00 0.00 0.00 0.00 0.00 0.00 0.00
MSLP
1011.45 1011.14 1010.96 1010.96 1011.10 1011.32 1011.56 1011.73 1011.81 1011.78 1011.69 1011.60 1011.57 1011.64 1011.83 1012.11 1012.44 1012.76 1013.00 1013.14 1013.16 1013.10 1013.00 1012.89 1012.82 1012.79 1012.79 1012.82 1012.84 1012.85 1012.83 1012.81 1012.81 1012.84 1012.92 1013.04 1013.19 1013.34 1013.44 1013.49 1013.47 1013.38 1013.26
1011.14 1010.95 1010.90 1010.99 1011.20 1011.45 1011.69 1011.85 1011.91 1011.87 1011.78 1011.72 1011.73 1011.86 1012.10 1012.42 1012.76 1013.07 1013.30 1013.41 1013.41 1013.34 1013.24 1013.14 1013.07 1013.04 1013.03 1013.02 1012.99 1012.94 1012.87 1012.81 1012.79 1012.83 1012.93 1013.09 1013.27 1013.43 1013.54 1013.57 1013.53 1013.42 1013.28
1010.75 1010.67 1010.72 1010.90 1011.18 1011.48 1011.75 1011.92 1011.99 1011.97 1011.92 1011.90 1011.96 1012.13 1012.39 1012.72 1013.04 1013.32 1013.49 1013.56 1013.54 1013.46 1013.37 1013.30 1013.26 1013.25 1013.24 1013.22 1013.16 1013.06 1012.96 1012.87 1012.83 1012.88 1013.00 1013.18 1013.38 1013.56 1013.67 1013.69 1013.63 1013.51 1013.38
1010.36 1010.35 1010.48 1010.74 1011.08 1011.43 1011.73 1011.94 1012.04 1012.07 1012.06 1012.09 1012.20 1012.40 1012.67 1012.97 1013.25 1013.46 1013.58 1013.60 1013.55 1013.48 1013.41 1013.39 1013.40 1013.43 1013.45 1013.43 1013.36 1013.24 1013.11 1013.00 1012.96 1013.01 1013.15 1013.34 1013.56 1013.73 1013.84 1013.85 1013.78 1013.67 1013.54
1010.02 1010.06 1010.24 1010.56 1010.94 1011.34 1011.68 1011.92 1012.06 1012.13 1012.17 1012.25 1012.40 1012.62 1012.88 1013.15 1013.38 1013.53 1013.58 1013.55 1013.49 1013.43 1013.41 1013.44 1013.51 1013.60 1013.66 1013.67 1013.60 1013.48 1013.34 1013.22 1013.17 1013.22 1013.36 1013.56 1013.77 1013.94 1014.03 1014.04 1013.96 1013.86 1013.77
1009.81 1009.88 1010.09 1010.43 1010.85 1011.26 1011.61 1011.87 1012.04 1012.14 1012.23 1012.35 1012.53 1012.77 1013.03 1013.27 1013.45 1013.55 1013.55 1013.49 1013.42 1013.38 1013.40 1013.49 1013.63 1013.78 1013.89 1013.92 1013.87 1013.75 1013.61 1013.49 1013.44 1013.49 1013.62 1013.81 1014.00 1014.15 1014.22 1014.21 1014.14 1014.05 1014.00
1009.77 1009.84 1010.06 1010.42 1010.83 1011.24 1011.59 1011.84 1012.01 1012.13 1012.25 1012.40 1012.61 1012.86 1013.13 1013.36 1013.51 1013.58 1013.55 1013.48 1013.41 1013.40 1013.46 1013.60 1013.79 1013.98 1014.12 1014.18 1014.14 1014.03 1013.89 1013.77 1013.72 1013.76 1013.88 1014.05 1014.21 1014.33 1014.38 1014.36 1014.29 1014.22 1014.20
1009.86 1009.94 1010.17 1010.53 1010.93 1011.32 1011.64 1011.86 1012.01 1012.12 1012.24 1012.41 1012.64 1012.92 1013.21 1013.45 1013.61 1013.66 1013.64 1013.57 1013.51 1013.51 1013.59 1013.76 1013.97 1014.18 1014.34 1014.40 1014.37 1014.27 1014.13 1014.02 1013.97 1014.00 1014.11 1014.25 1014.38 1014.47 1014.49 1014.44 1014.37 1014.32 1014.33
1010.02 1010.13 1010.38 1010.74 1011.13 1011.48 1011.76 1011.93 1012.04 1012.13 1012.24 1012.42 1012.68 1012.99 1013.31 1013.58 1013.76 1013.83 1013.81 1013.76 1013.70 1013.71 1013.80 1013.96 1014.17 1014.37 1014.52 1014.58 1014.54 1014.44 1014.31 1014.21 1014.16 1014.19 1014.28 1014.40 1014.50 1014.55 1014.54 1014.48 1014.41 1014.37 1014.40
1010.17 1010.32 1010.61 1010.99 1011.37 1011.69 1011.92 1012.05 1012.11 1012.17 1012.27 1012.46 1012.74 1013.09 1013.44 1013.74 1013.96 1014.06 1014.06 1014.01 1013.96 1013.96 1014.03 1014.17 1014.34 1014.52 1014.64 1014.68 1014.65 1014.55 1014.43 1014.34 1014.31 1014.34 1014.42 1014.52 1014.59 1014.62 1014.58 1014.51 1014.43 1014.39 1014.44
1010.20 1010.43 1010.78 1011.18 1011.57 1011.87 1012.07 1012.16 1012.19 1012.22 1012.32 1012.52 1012.83 1013.20 1013.59 1013.93 1014.17 1014.30 1014.32 1014.27 1014.22 1014.20 1014.23 1014.33 1014.47 1014.61 1014.70 1014.73 1014.69 1014.61 1014.51 1014.44 1014.43 1014.47 1014.55 1014.63 1014.69 1014.69 1014.64 1014.55 1014.47 1014.43 1014.48
1010.08 1010.38 1010.80 1011.25 1011.66 1011.96 1012.14 1012.22 1012.24 1012.27 1012.37 1012.58 1012.91 1013.30 1013.71 1014.08 1014.34 1014.49 1014.52 1014.47 1014.41 1014.36 1014.37 1014.43 1014.53 1014.64 1014.71 1014.74 1014.71 1014.65 1014.59 1014.55 1014.56 1014.62 1014.70 1014.78 1014.82 1014.81 1014.74 1014.65 1014.57 1014.53 1014.57
1009.78 1010.16 1010.64 1011.14 1011.57 1011.90 1012.09 1012.17 1012.21 1012.25 1012.38 1012.61 1012.95 1013.36 1013.78 1014.15 1014.42 1014.57 1014.60 1014.56 1014.49 1014.43 1014.42 1014.47 1014.55 1014.64 1014.71 1014.75 1014.75 1014.73 1014.70 1014.70 1014.73 1014.80 1014.89 1014.96 1015.00 1014.98 1014.91 1014.82 1014.74 1014.70 1014.74
1009.33 1009.77 1010.30 1010.83 1011.30 1011.65 1011.88 1012.00 1012.07 1012.15 1012.31 1012.56 1012.91 1013.33 1013.74 1014.10 1014.36 1014.51 1014.54 1014.50 1014.44 1014.39 1014.39 1014.44 1014.53 1014.64 1014.74 1014.81 1014.85 1014.86 1014.88 1014.91 1014.97 1015.04 1015.13 1015.19 1015.22 1015.20 1015.13 1015.05 1014.98 1014.95 1014.98
1008.80 1009.27 1009.82 1010.37 1010.86 1011.24 1011.51 1011.68 1011.81 1011.95 1012.15 1012.43 1012.79 1013.19 1013.58 1013.92 1014.16 1014.30 1014.34 1014.32 1014.28 1014.27 1014.30 1014.39 1014.52 1014.67 1014.81 1014.93 1015.02 1015.08 1015.13 1015.19 1015.25 1015.32 1015.39 1015.44 1015.45 1015.43 1015.38 1015.31 1015.26 1015.24 1015.28
1008.25 1008.71 1009.25 1009.80 1010.30 1010.71 1011.03 1011.26 1011.46 1011.66 1011.90 1012.21 1012.56 1012.94 1013.30 1013.61 1013.83 1013.96 1014.01 1014.03 1014.05 1014.10 1014.20 1014.35 1014.55 1014.76 1014.96 1015.13 1015.27 1015.37 1015.44 1015.51 1015.57 1015.62 1015.66 1015.68 1015.68 1015.65 1015.61 1015.56 1015.54 1015.54 1015.59
1007.72 1008.16 1008.68 1009.21 1009.71 1010.14 1010.50 1010.80 1011.06 1011.32 1011.61 1011.92 1012.27 1012.62 1012.94 1013.21 1013.41 1013.54 1013.63 1013.70 1013.79 1013.93 1014.11 1014.35 1014.62 1014.90 1015.16 1015.39 1015.56 1015.69 1015.78 1015.85 1015.89 1015.91 1015.92 1015.91 1015.88 1015.85 1015.81 1015.78 1015.79 1015.82 1015.89
1007.26 1007.67 1008.15 1008.66 1009.15 1009.61 1010.01 1010.36 1010.68 1010.99 1011.31 1011.63 1011.95 1012.26 1012.54 1012.78 1012.96 1013.11 1013.24 1013.38 1013.55 1013.77 1014.05 1014.38 1014.72 1015.07 1015.38 1015.65 1015.86 1016.01 1016.12 1016.18 1016.20 1016.20 1016.17 1016.13 1016.07 1016.02 1015.99 1015.98 1016.01 1016.08 1016.16
1006.86 1007.24 1007.70 1008.20 1008.69 1009.17 1009.61 1010.01 1010.38 1010.72 1011.05 1011.37 1011.66 1011.92 1012.16 1012.36 1012.53 1012.70 1012.87 1013.08 1013.34 1013.65 1014.01 1014.41 1014.82 1015.21 1015.57 1015.87 1016.11 1016.29 1016.40 1016.47 1016.49 1016.47 1016.42 1016.35 1016.27 1016.20 1016.17 1016.17 1016.22 1016.31 1016.42
1006.53 1006.91 1007.36 1007.86 1008.36 1008.86 1009.34 1009.78 1010.18 1010.55 1010.88 1011.17 1011.42 1011.63 1011.82 1011.99 1012.16 1012.34 1012.56 1012.83 1013.15 1013.53 1013.96 1014.41 1014.85 1015.28 1015.66 1016.00 1016.27 1016.48 1016.63 1016.72 1016.76 1016.74 1016.69 1016.61 1016.51 1016.43 1016.39 1016.39 1016.45 1016.55 1016.67
1006.26 1006.66 1007.13 1007.65 1008.18 1008.70 1009.21 1009.68 1010.11 1010.48 1010.79 1011.05 1011.25 1011.42 1011.56 1011.70 1011.85 1012.05 1012.30 1012.61 1012.98 1013.41 1013.86 1014.33 1014.79 1015.23 1015.63 1015.99 1016.29 1016.55 1016.76 1016.91 1017.00 1017.02 1016.99 1016.92 1016.82 1016.73 1016.67 1016.66 1016.71 1016.81 1016.93
1006.08 1006.52 1007.02 1007.56 1008.12 1008.68 1009.21 1009.70 1010.14 1010.50 1010.79 1011.00 1011.16 1011.27 1011.37 1011.48 1011.62 1011.82 1012.09 1012.42 1012.81 1013.24 1013.70 1014.16 1014.61 1015.04 1015.44 1015.82 1016.18 1016.50 1016.79 1017.02 1017.20 1017.29 1017.32 1017.27 1017.19 1017.09 1017.00 1016.97 1016.99 1017.07 1017.18
1006.02 1006.50 1007.03 1007.59 1008.17 1008.75 1009.30 1009.80 1010.23 1010.58 1010.84 1011.01 1011.12 1011.19 1011.25 1011.33 1011.46 1011.65 1011.92 1012.25 1012.63 1013.04 1013.46 1013.88 1014.29 1014.70 1015.10 1015.50 1015.91 1016.31 1016.70 1017.04 1017.32 1017.52 1017.61 1017.62 1017.55 1017.45 1017.35 1017.27 1017.26 1017.31 1017.40
1006.12 1006.61 1007.15 1007.71 1008.29 1008.87 1009.42 1009.91 1010.33 1010.66 1010.89 1011.03 1011.10 1011.14 1011.17 1011.23 1011.35 1011.53 1011.78 1012.09 1012.44 1012.80 1013.17 1013.53 1013.89 1014.26 1014.64 1015.06 1015.51 1015.99 1016.48 1016.94 1017.33 1017.63 1017.81 1017.87 1017.84 1017.74 1017.62 1017.51 1017.46 1017.47 1017.53
1006.38 1006.85 1007.35 1007.89 1008.44 1008.99 1009.51 1009.98 1010.38 1010.69 1010.90 1011.03 1011.08 1011.10 1011.12 1011.18 1011.28 1011.45 1011.68 1011.96 1012.26 1012.57 1012.87 1013.16 1013.45 1013.76 1014.12 1014.54 1015.02 1015.56 1016.13 1016.68 1017.18 1017.57 1017.83 1017.96 1017.96 1017.87 1017.74 1017.61 1017.52 1017.50 1017.55
1006.80 1007.19 1007.62 1008.08 1008.57 1009.06 1009.54 1009.98 1010.35 1010.65 1010.85 1010.97 1011.03 1011.06 1011.08 1011.14 1011.24 1011.41 1011.62 1011.87 1012.12 1012.37 1012.60 1012.82 1013.04 1013.29 1013.61 1014.00 1014.49 1015.05 1015.66 1016.28 1016.84 1017.30 1017.63 1017.81 1017.85 1017.79 1017.66 1017.53 1017.43 1017.39 1017.43
Thickness
5800 5801 5798 5795 5793 5792 5790 5788 5786 5785 5783 5781 5779 5777 5775 5772 5771 5769 5767 5766 5766 5766 5766 5766 5767 5768 5768 5769 5771 5772 5773 5774 5775 5775 5774 5774 5773 5774 5774 5774 5775 5777 5779
5806 5803 5800 5797 5795 5793 5791 5789 5787 5785 5783 5781 5778 5776 5773 5771 5769 5767 5765 5764 5764 5763 5763 5763 5763 5764 5765 5766 5768 5770 5771 5772 5772 5773 5772 5772 5772 5771 5771 5772 5773 5775 5777
5807 5804 5801 5798 5796 5793 5791 5789 5787 5785 5783 5781 5778 5775 5772 5769 5767 5765 5763 5762 5761 5760 5760 5759 5759 5760 5760 5762 5764 5767 5768 5770 5771 5771 5772 5772 5771 5770 5769 5770 5771 5773 5774
5808 5805 5802 5799 5796 5794 5791 5789 5787 5785 5783 5780 5778 5774 5770 5767 5764 5763 5761 5760 5758 5757 5757 5757 5756 5756 5756 5758 5760 5763 5766 5768 5770 5771 5771 5770 5770 5769 5769 5769 5770 5771 5772
5807 5805 5802 5800 5797 5794 5791 5789 5787 5785 5783 5780 5777 5773 5769 5765 5762 5760 5759 5757 5756 5755 5754 5753 5753 5752 5753 5754 5757 5760 5763 5766 5768 5769 5770 5770 5769 5769 5768 5768 5768 5769 5769
5806 5804 5802 5800 5797 5794 5792 5789 5787 5784 5782 5779 5776 5772 5768 5764 5760 5758 5756 5755 5754 5752 5751 5751 5750 5750 5750 5751 5754 5757 5760 5764 5765 5766 5768 5768 5768 5768 5768 5767 5767 5767 5768
5805 5804 5802 5800 5797 5795 5792 5789 5786 5784 5781 5778 5775 5771 5767 5763 5760 5756 5754 5753 5751 5750 5749 5749 5748 5748 5748 5749 5751 5755 5759 5762 5762 5764 5765 5766 5767 5767 5767 5766 5766 5766 5766
5805 5803 5801 5799 5797 5794 5792 5789 5786 5783 5780 5777 5773 5769 5766 5762 5759 5755 5753 5750 5749 5748 5748 5747 5747 5748 5748 5748 5749 5752 5755 5758 5759 5761 5762 5763 5765 5765 5765 5765 5765 5765 5765
5805 5803 5801 5799 5797 5794 5792 5789 5786 5782 5779 5775 5771 5767 5764 5761 5758 5755 5751 5749 5747 5746 5746 5746 5746 5747 5747 5747 5748 5750 5753 5755 5756 5758 5759 5761 5762 5763 5763 5763 5763 5763 5763
5803 5802 5800 5798 5796 5794 5792 5789 5786 5782 5778 5774 5770 5766 5762 5759 5756 5754 5751 5748 5746 5744 5744 5744 5744 5745 5746 5746 5747 5748 5750 5751 5753 5754 5756 5758 5759 5760 5761 5761 5761 5761 5760
5799 5799 5799 5797 5795 5794 5791 5789 5786 5782 5777 5773 5769 5765 5761 5757 5754 5752 5750 5747 5745 5743 5742 5742 5742 5743 5744 5746 5747 5747 5748 5748 5750 5751 5753 5756 5757 5758 5759 5758 5758 5758 5758
5796 5798 5798 5796 5794 5792 5791 5788 5785 5781 5777 5772 5768 5764 5760 5756 5753 5751 5748 5746 5744 5742 5740 5740 5741 5742 5743 5744 5745 5746 5747 5747 5748 5749 5751 5753 5754 5755 5756 5756 5755 5755 5755
5801 5799 5798 5796 5794 5791 5789 5786 5782 5779 5775 5771 5767 5762 5758 5754 5751 5749 5747 5745 5743 5741 5739 5738 5738 5739 5740 5740 5740 5742 5743 5745 5746 5747 5748 5750 5751 5752 5753 5753 5752 5752 5752
5802 5801 5800 5797 5793 5790 5787 5783 5780 5776 5773 5769 5765 5761 5756 5753 5750 5747 5745 5744 5742 5740 5738 5737 5737 5737 5737 5737 5737 5737 5739 5740 5742 5743 5745 5746 5747 5748 5749 5749 5749 5749 5749
5804 5802 5801 5798 5793 5789 5785 5781 5777 5774 5771 5768 5764 5760 5756 5752 5749 5746 5744 5743 5741 5739 5737 5736 5736 5737 5737 5735 5733 5733 5734 5735 5737 5739 5740 5741 5742 5742 5743 5744 5745 5745 5745
5806 5804 5802 5798 5794 5789 5784 5780 5777 5774 5771 5767 5764 5761 5757 5753 5750 5747 5744 5742 5740 5738 5736 5734 5734 5735 5734 5732 5729 5729 5729 5730 5731 5732 5733 5735 5736 5736 5737 5738 5739 5740 5741
5809 5806 5802 5799 5794 5789 5784 5780 5778 5774 5771 5767 5764 5761 5758 5754 5750 5747 5744 5741 5739 5737 5734 5731 5730 5730 5729 5727 5725 5724 5724 5724 5724 5725 5726 5727 5729 5730 5730 5732 5733 5734 5735
5810 5805 5802 5800 5793 5788 5784 5780 5777 5774 5770 5767 5764 5762 5759 5755 5751 5747 5743 5741 5739 5736 5733 5729 5726 5724 5722 5720 5719 5719 5718 5718 5718 5718 5719 5720 5722 5723 5724 5724 5726 5727 5728
5811 5806 5800 5799 5793 5788 5785 5780 5776 5773 5769 5766 5763 5760 5758 5755 5751 5748 5744 5741 5738 5734 5731 5728 5723 5720 5715 5713 5713 5713 5713 5713 5712 5713 5713 5714 5715 5716 5717 5718 5719 5720 5722
5810 5805 5800 5796 5792 5787 5782 5777 5773 5770 5766 5764 5761 5759 5756 5753 5749 5746 5743 5740 5737 5732 5727 5724 5720 5717 5713 5710 5709 5707 5707 5708 5708 5708 5708 5709 5710 5710 5711 5712 5713 5714 5716
5805 5800 5795 5790 5787 5783 5776 5770 5766 5763 5762 5760 5758 5756 5753 5750 5746 5742 5739 5735 5732 5729 5725 5721 5716 5711 5706 5705 5700 5696 5698 5702 5703 5704 5704 5704 5705 5705 5706 5707 5708 5709 5710
5800 5796 5791 5787 5783 5780 5775 5770 5766 5762 5759 5758 5755 5752 5749 5746 5742 5738 5734 5730 5727 5724 5721 5717 5713 5706 5703 5701 5694 5687 5684 5688 5694 5699 5699 5700 5700 5701 5701 5702 5703 5704 5705
5794 5792 5787 5782 5778 5774 5769 5764 5759 5755 5753 5750 5748 5747 5745 5742 5737 5733 5730 5726 5722 5719 5716 5714 5711 5705 5697 5696 5695 5687 5679 5677 5684 5691 5694 5696 5697 5697 5697 5698 5698 5699 5701
5788 5786 5781 5775 5771 5767 5763 5758 5753 5748 5745 5745 5744 5742 5740 5737 5733 5729 5726 5723 5718 5714 5711 5710 5709 5705 5698 5692 5690 5690 5688 5687 5682 5681 5687 5691 5694 5694 5695 5695 5695 5695 5696
5776 5773 5770 5766 5762 5760 5758 5754 5750 5745 5743 5741 5739 5735 5733 5731 5728 5725 5722 5718 5715 5711 5707 5705 5703 5701 5698 5693 5688 5686 5684 5685 5685 5682 5680 5684 5688 5691 5692 5693 5693 5693 5693
5763 5760 5759 5756 5754 5754 5753 5750 5747 5743 5739 5734 5731 5728 5726 5724 5722 5720 5717 5713 5710 5706 5703 5700 5699 5696 5694 5692 5689 5686 5683 5681 5681 5680 5679 5680 5682 5688 5690 5691 5691 5691 5691